Theta_e
328 328 326 324 324 324 323 323 322 321 322 323 326 329 331 330 330 330 330 330 331 331 331 331 330 326 324 323 323 323 325 326 328 329 328 327 327 327 326 326 326 326 325 326 325 323 322 322 324 323 323 322 321 321 321 322 323 324 325 327 327 328 329 330 330 331 331 332 333 334 335 335 335 335 334 333 332 332 337 339 337 337 340 341 339
328 329 328 327 326 325 326 328 328 325 326 328 332 333 331 331 332 331 331 332 333 332 332 333 332 330 327 324 323 324 325 327 329 330 330 328 328 328 328 327 327 326 326 327 325 323 322 323 324 323 322 322 321 321 320 320 321 321 323 324 325 325 326 328 329 329 330 331 332 332 333 335 337 336 334 333 332 332 335 336 335 335 337 337 336
334 334 334 332 331 327 329 334 334 331 331 333 334 334 333 332 331 330 331 332 332 331 331 331 332 331 330 329 327 325 325 329 330 330 330 329 328 329 329 327 326 327 327 327 327 324 323 324 324 323 321 321 320 319 318 318 319 320 321 322 323 324 325 326 327 328 329 330 332 333 333 336 338 338 336 334 333 333 335 335 335 337 338 336 335
341 340 338 336 333 329 330 333 333 333 335 335 334 334 333 331 330 330 331 330 330 330 330 330 330 330 331 331 331 328 327 329 331 330 330 329 328 330 331 328 326 326 326 327 328 326 325 325 325 322 321 320 318 316 316 317 317 319 320 321 321 322 323 324 325 326 328 329 331 332 333 334 336 337 336 335 335 335 336 336 336 339 340 338 336
344 341 337 335 335 333 333 334 334 334 335 335 334 333 332 331 330 329 329 329 331 331 331 330 329 329 329 330 331 330 330 330 331 330 329 328 328 329 330 330 327 325 325 327 329 327 326 326 325 323 320 319 316 315 316 317 317 318 319 319 320 320 321 322 324 325 326 328 330 331 333 333 334 335 336 336 336 336 335 335 336 338 339 338 336
342 340 337 338 339 338 337 336 336 336 336 335 334 332 331 330 329 329 330 331 332 330 329 329 329 329 329 329 330 331 331 330 330 330 329 328 327 326 327 329 327 326 326 329 330 328 326 327 326 323 319 317 316 314 316 317 317 318 318 319 319 319 319 319 322 324 325 327 330 332 333 333 335 336 336 335 335 335 335 335 337 338 340 340 337
336 337 339 341 341 340 338 337 336 336 336 334 334 333 332 331 331 329 329 328 328 328 329 330 330 330 330 329 330 330 331 331 330 330 329 328 326 325 325 327 327 326 327 329 329 328 326 326 327 324 319 317 316 314 315 316 316 317 318 319 319 319 318 318 320 323 324 326 328 332 333 334 336 338 337 335 334 335 335 337 339 340 341 341 338
335 336 336 337 338 338 338 337 336 336 334 331 330 331 331 330 329 326 325 327 328 330 331 331 330 329 328 329 330 331 332 333 331 331 331 328 326 326 325 326 326 324 325 326 327 327 326 325 326 325 321 318 316 314 314 316 316 317 317 318 318 318 319 318 319 321 324 325 327 330 332 334 335 337 338 336 335 335 335 336 339 341 341 341 339
335 334 331 329 330 330 331 333 334 333 331 328 327 329 330 329 328 328 328 330 330 330 331 330 329 329 329 330 331 331 333 333 332 332 332 330 329 329 327 324 323 321 322 324 324 326 326 324 325 326 324 320 318 316 315 316 318 319 319 318 318 318 318 318 318 320 323 325 326 328 331 332 333 334 336 336 335 335 335 335 338 340 340 340 339
335 334 327 324 324 323 323 325 327 327 325 324 325 327 329 330 330 331 331 330 331 330 329 328 329 330 331 331 331 332 332 331 328 328 331 331 330 329 325 322 321 321 321 322 323 325 326 326 325 325 324 322 320 319 318 318 319 321 320 319 318 318 318 318 318 319 322 324 325 326 328 330 332 332 333 335 336 335 335 336 337 338 340 341 340
337 334 327 324 324 322 319 319 321 321 321 322 323 325 327 329 330 332 332 332 332 331 330 330 330 329 330 330 332 332 330 329 327 326 327 328 329 328 324 322 322 323 322 323 324 326 327 327 327 326 325 323 321 320 319 319 320 322 321 319 319 318 318 318 318 319 322 324 325 326 327 328 329 331 332 334 335 336 336 336 337 338 340 341 340
340 336 327 323 324 321 319 319 321 321 322 322 323 324 326 328 331 333 334 334 334 332 331 330 330 329 330 331 331 330 328 328 328 325 324 326 328 328 326 325 324 323 323 323 324 325 326 326 326 326 326 325 322 320 320 320 321 322 321 319 319 318 318 318 319 321 323 324 324 325 326 326 327 328 330 333 335 336 336 336 336 337 339 342 341
341 336 325 322 322 321 320 321 322 322 322 323 323 324 326 329 332 334 335 335 334 333 331 330 330 330 331 330 329 328 328 327 326 324 324 325 326 327 327 327 325 324 324 323 323 323 324 325 325 324 325 325 324 321 321 320 321 321 320 318 318 318 318 318 319 321 323 324 324 324 324 325 325 325 327 330 333 335 336 336 336 337 339 341 342
342 335 325 321 322 321 320 322 322 322 323 323 324 325 327 329 332 334 335 335 334 332 331 330 330 330 330 328 327 326 326 325 324 322 323 324 325 327 326 326 325 324 324 324 324 323 322 324 324 324 323 323 323 322 321 321 320 320 319 318 318 319 318 318 320 322 322 323 324 324 324 325 325 325 326 327 330 333 335 337 337 337 338 340 340
341 337 328 323 322 322 322 322 322 323 324 325 326 328 329 331 333 332 332 333 333 331 331 330 329 327 326 325 325 325 324 324 324 322 322 323 324 325 325 325 324 323 322 323 323 322 321 322 322 322 320 319 321 322 321 320 321 320 320 320 319 319 317 318 321 323 323 323 324 324 324 324 324 325 326 326 328 331 334 336 337 338 338 340 341
339 337 331 324 322 323 324 324 324 326 328 329 329 332 334 334 333 332 332 332 330 329 329 328 327 326 326 327 327 327 326 326 324 322 321 322 322 324 324 324 324 323 322 322 323 321 321 321 321 321 320 319 321 322 321 320 320 320 321 321 320 318 317 318 320 322 324 324 324 325 325 326 326 326 327 327 327 330 333 335 336 338 339 340 341
339 337 332 328 326 327 328 329 330 331 331 332 332 335 336 335 333 333 333 334 331 329 330 329 328 328 328 329 329 329 329 328 325 323 322 322 321 322 323 323 323 324 323 322 322 321 322 322 323 322 321 319 320 321 319 320 320 320 321 321 319 317 318 319 320 321 323 324 325 326 326 328 329 329 329 328 328 329 333 335 336 337 339 339 340
336 335 334 333 334 333 333 334 334 335 334 334 334 335 335 333 333 333 334 334 332 331 331 330 329 329 329 329 330 330 330 328 327 326 324 322 321 321 322 323 324 324 323 322 321 322 323 323 323 324 322 320 320 319 318 319 320 321 321 320 318 317 318 319 319 318 321 324 326 327 329 331 332 332 331 330 328 329 333 336 337 337 338 339 340
334 335 335 336 336 336 335 336 336 336 336 335 335 335 333 332 332 332 333 334 332 331 331 330 329 329 329 329 329 330 330 329 329 328 325 322 321 321 321 322 322 323 323 322 321 322 323 323 324 324 323 321 319 318 318 320 320 321 321 320 318 317 318 319 318 317 321 325 326 326 330 332 334 334 333 331 329 329 331 334 336 338 339 339 340
336 337 337 337 337 336 336 336 337 336 336 336 336 334 332 331 331 331 332 333 333 332 332 331 330 328 328 329 329 330 330 329 329 329 326 322 321 321 321 321 321 322 323 322 322 322 323 323 324 323 322 320 318 317 319 320 320 321 321 320 319 317 317 318 318 318 320 324 324 325 329 332 334 333 332 331 330 330 330 333 334 337 338 339 339
339 339 339 339 338 337 336 336 336 336 336 336 336 334 332 330 330 330 332 333 333 332 332 331 330 329 329 329 329 329 329 329 329 329 326 322 322 321 321 321 321 321 322 322 321 322 323 323 323 322 321 318 317 318 320 321 320 321 321 320 319 318 317 318 318 317 320 322 323 324 327 331 334 335 334 332 331 330 331 332 334 336 338 338 337
340 340 340 339 338 338 338 336 336 336 337 337 335 334 333 331 330 329 331 333 334 332 331 331 330 330 329 329 329 328 327 327 328 328 325 322 323 322 322 322 321 321 321 321 320 321 322 322 323 323 320 318 318 320 321 320 321 322 321 321 319 317 317 318 318 317 318 320 321 323 326 329 333 336 336 335 333 331 331 332 333 335 337 336 336
341 340 340 339 338 338 338 337 337 337 337 337 335 333 333 332 330 329 331 333 333 332 331 330 328 328 328 328 327 326 325 324 325 325 323 322 323 323 322 322 322 321 321 321 320 321 322 322 324 323 319 319 321 322 322 321 321 322 322 321 319 318 317 319 318 316 317 319 320 322 325 327 330 334 336 336 336 333 332 332 332 333 334 334 334
342 341 340 339 338 338 337 337 337 337 337 336 335 334 333 331 329 327 329 331 332 331 331 328 326 326 327 326 325 325 324 323 323 323 323 323 323 323 323 322 322 321 321 321 320 322 323 324 323 321 319 321 323 323 322 322 323 323 323 321 320 318 318 320 319 316 316 319 321 323 325 326 327 331 333 336 338 336 335 334 333 333 333 333 333
344 343 341 340 339 339 338 338 338 337 337 335 335 333 331 330 328 326 327 330 331 331 331 329 327 326 326 326 326 325 324 323 323 324 324 324 323 323 322 321 321 320 321 321 322 323 324 324 322 320 321 323 324 323 323 323 323 323 323 322 321 320 321 321 319 315 315 318 320 323 326 325 324 327 331 335 337 337 338 337 336 336 335 335 335
343 343 342 341 339 338 338 339 338 336 335 335 333 330 328 328 329 328 329 330 330 330 329 328 327 326 326 327 326 324 323 323 324 324 324 324 323 322 320 320 319 319 320 322 323 324 324 323 322 322 323 324 323 323 323 322 321 322 322 321 321 321 321 322 319 316 315 317 318 321 325 324 322 323 328 333 336 337 338 338 338 339 338 337 337
338 339 341 342 341 340 339 339 337 335 334 333 329 327 327 328 329 329 330 330 329 328 327 327 326 326 327 327 325 324 323 323 323 323 324 323 322 320 318 318 318 319 320 321 322 323 322 322 322 323 323 323 323 322 322 321 321 320 320 321 322 322 322 323 321 318 316 317 317 318 321 323 320 320 322 327 332 336 338 338 338 339 339 339 339
336 335 338 340 340 339 338 337 336 335 333 331 328 328 329 329 328 329 330 328 327 326 326 326 325 325 326 325 324 323 323 322 322 323 324 323 320 318 318 318 318 319 320 321 321 322 322 322 323 323 323 322 321 321 321 321 320 320 320 321 321 322 323 323 323 320 318 317 317 317 318 320 321 320 319 320 324 329 333 337 339 339 339 339 340
336 336 338 339 338 337 336 335 334 333 331 330 329 329 330 329 328 328 327 326 325 324 324 324 323 323 323 323 322 322 323 323 323 323 322 321 319 317 317 318 319 320 321 321 322 322 322 322 323 323 322 321 320 321 321 321 320 320 321 321 321 322 323 323 323 323 320 318 317 317 317 319 321 321 320 318 319 321 325 329 335 338 339 340 340
336 336 336 335 335 335 334 333 332 331 330 330 329 329 329 329 328 327 326 325 325 324 323 323 323 323 322 321 321 321 322 322 322 322 321 319 317 315 317 318 319 321 321 322 322 323 322 322 322 321 321 320 320 320 320 320 320 320 321 321 321 322 323 323 323 323 322 320 318 317 317 317 319 322 322 320 318 319 319 322 326 330 333 335 336
335 335 334 333 333 332 331 331 330 329 328 328 328 328 328 328 327 327 327 326 326 325 324 322 322 322 322 321 321 321 322 322 322 322 320 317 314 314 316 318 319 320 321 322 322 322 321 320 320 320 320 319 320 320 320 320 320 320 320 321 321 322 323 323 323 323 322 322 319 317 317 317 317 320 322 321 319 319 318 318 320 323 325 327 329
333 334 334 333 332 330 330 330 330 330 329 328 327 328 328 328 328 327 326 326 326 325 323 321 321 321 322 321 322 322 322 322 321 320 317 313 312 313 317 317 318 319 321 322 321 320 320 318 318 319 319 319 319 319 318 319 319 319 320 320 320 321 321 322 322 322 322 322 321 319 318 317 317 317 319 320 320 320 320 319 319 319 320 322 324
330 333 334 334 332 331 330 330 330 330 330 328 328 328 328 328 328 327 325 325 325 324 321 321 322 322 321 321 321 321 321 320 319 316 313 311 311 314 317 318 317 317 319 320 320 320 319 318 318 318 318 318 318 318 318 318 319 319 319 319 319 319 319 320 320 321 322 322 322 321 320 320 318 317 317 318 319 320 321 321 320 320 319 318 320
326 330 331 330 330 329 329 329 329 329 329 329 328 328 327 327 327 326 325 325 324 323 322 321 321 321 320 319 317 317 317 316 313 312 311 311 312 315 318 318 317 316 316 317 319 319 318 318 318 318 317 318 318 318 318 318 318 318 318 318 318 318 318 318 318 319 320 321 321 322 322 322 321 320 318 317 317 319 320 320 320 321 321 319 318
324 328 328 327 327 327 327 328 328 328 329 328 326 326 326 326 326 326 326 325 324 322 322 321 320 320 318 316 313 312 311 310 310 310 309 309 311 316 319 318 317 316 316 317 317 317 317 317 317 317 318 317 318 318 317 317 317 317 318 318 318 318 317 317 317 317 317 318 319 320 320 321 321 322 321 320 318 318 319 319 320 321 321 320 319
327 328 328 328 328 327 327 327 326 326 326 326 324 325 326 326 325 325 325 324 323 323 322 321 320 319 317 315 314 312 311 311 311 311 310 309 311 315 317 316 315 315 316 316 316 316 315 316 317 317 317 316 316 316 316 315 315 315 315 315 315 315 316 315 315 314 315 316 317 317 318 318 319 321 322 322 320 320 319 319 320 321 321 320 319
330 329 328 328 328 328 327 326 326 325 325 324 324 325 326 325 325 324 324 323 323 323 321 320 319 317 315 315 314 312 310 311 312 312 312 311 309 310 314 315 315 315 315 315 315 315 315 315 315 314 314 314 314 313 312 312 312 311 311 311 311 311 311 311 311 311 312 313 314 315 316 316 317 318 319 320 321 322 322 322 322 322 322 322 320
328 326 325 326 326 326 326 325 325 325 325 324 324 325 325 325 324 322 322 321 321 321 320 319 318 316 314 314 313 310 310 311 312 312 312 310 308 308 311 313 314 314 315 315 314 314 313 312 311 311 311 311 311 310 310 310 309 309 309 308 308 308 308 308 308 308 308 309 310 312 313 313 314 316 317 318 319 321 322 322 323 323 323 323 323
327 325 324 324 324 325 325 324 324 325 325 324 324 324 323 322 321 320 320 320 319 319 319 318 316 314 314 313 312 310 310 311 312 312 311 309 309 309 310 312 313 314 314 313 312 311 310 310 310 310 309 309 309 309 308 308 308 307 307 307 307 307 307 307 307 307 306 306 307 308 309 309 310 312 314 316 317 318 320 321 322 323 323 323 324
327 325 324 324 323 323 324 325 324 325 325 324 324 323 321 320 320 319 318 317 316 316 315 314 313 313 313 312 310 309 310 310 311 311 309 308 309 310 310 311 312 312 311 310 310 310 310 309 308 308 307 307 307 307 307 306 306 306 305 305 305 305 305 305 305 305 305 304 304 305 305 306 306 307 309 311 313 315 317 319 319 321 322 322 323
326 324 323 323 322 322 323 323 323 324 324 324 323 322 320 320 319 317 316 316 315 314 314 313 313 313 312 310 308 308 309 309 309 309 308 308 309 310 310 310 310 310 310 310 310 310 310 309 308 307 306 306 305 305 305 305 304 304 303 303 302 302 302 302 302 302 303 303 302 303 303 303 303 304 305 307 309 310 313 315 317 318 320 321 322
325 324 325 323 322 323 324 323 323 323 323 322 321 320 320 319 318 317 316 316 316 315 314 313 312 312 311 309 307 306 308 308 308 307 307 307 308 309 309 309 310 310 310 310 310 309 309 308 308 306 305 305 304 304 304 303 302 301 301 300 299 299 299 299 299 299 300 300 300 300 300 300 300 301 302 304 306 307 308 310 312 315 316 318 320
325 325 325 323 322 322 323 323 322 322 322 321 320 319 318 318 318 317 317 316 315 314 313 313 312 311 310 308 306 305 306 307 307 306 306 306 307 308 308 308 308 308 308 307 307 306 306 306 305 304 303 303 302 302 302 301 300 299 299 297 296 296 296 296 296 296 297 298 298 298 298 297 297 297 299 302 304 305 305 305 307 310 312 315 317
325 324 323 322 322 322 322 322 322 321 320 320 319 318 317 317 317 317 316 315 315 314 313 312 311 310 309 308 306 306 306 306 306 305 306 306 306 306 307 307 307 306 305 305 305 304 303 302 302 301 301 300 300 300 299 299 297 296 295 295 294 294 294 294 294 294 295 296 296 296 296 296 295 295 296 298 300 301 302 303 304 306 308 310 313
323 322 322 322 322 321 321 321 320 319 319 318 318 317 316 316 316 315 315 314 314 313 312 312 311 309 308 307 307 306 306 305 304 304 305 305 305 305 306 306 306 305 304 304 304 303 301 300 299 300 299 298 297 297 297 296 294 293 293 293 293 293 293 293 294 294 294 294 295 295 295 295 294 294 294 295 296 297 300 302 303 303 304 306 309
322 322 322 321 320 319 319 319 319 319 318 317 317 317 316 315 315 314 314 313 313 312 312 312 310 308 308 307 306 306 306 305 305 304 305 305 305 305 305 305 305 304 303 303 302 301 300 298 297 297 296 296 295 294 294 293 293 293 293 293 293 293 293 293 294 294 294 294 295 295 295 295 294 294 294 294 294 295 297 300 301 301 301 303 306
320 320 319 319 319 318 318 318 317 317 317 316 316 316 316 315 314 314 313 312 312 312 312 311 309 308 307 307 306 306 305 305 305 305 305 304 304 304 304 304 304 304 303 302 300 299 298 297 296 295 294 293 292 292 292 292 293 293 293 293 293 293 293 293 294 294 294 294 294 295 296 295 294 294 294 294 295 295 296 298 300 300 300 300 302
319 318 318 317 317 317 317 316 316 316 315 315 315 315 314 314 313 312 312 311 310 310 310 310 309 308 307 307 306 305 305 305 305 305 305 304 304 303 303 302 302 303 302 301 298 296 296 295 294 294 294 294 293 293 292 292 292 293 293 293 293 293 293 293 294 294 294 294 294 295 295 296 295 295 294 294 295 295 296 298 300 301 300 299 299
317 317 317 316 316 316 315 315 315 315 314 314 314 313 313 313 312 311 311 310 309 308 308 308 308 306 306 306 305 305 305 304 304 305 304 304 304 304 302 300 300 301 302 300 298 297 297 295 294 293 293 294 295 295 293 292 292 292 292 292 293 293 293 293 293 294 293 293 294 294 295 295 296 295 294 293 294 295 296 298 300 300 299 299 300
316 316 316 315 315 315 315 314 314 314 313 313 313 312 312 311 310 310 309 309 308 308 307 307 307 306 305 305 305 305 305 304 304 304 304 303 303 303 301 298 299 301 301 300 298 297 297 297 296 295 294 294 295 295 294 293 292 292 292 292 292 292 293 292 293 293 293 293 294 294 294 294 295 295 294 293 294 295 296 298 299 299 299 299 299
315 315 314 314 313 313 313 313 312 312 312 312 311 311 310 310 309 309 308 308 307 307 306 306 306 305 305 305 305 304 304 304 304 304 304 303 303 302 300 299 299 300 300 299 299 298 297 297 297 296 296 296 296 295 294 294 292 292 292 293 292 292 292 292 292 293 293 293 293 294 293 293 294 295 294 293 293 294 295 297 298 298 297 298 299
Wind_Speed
12 9 7 6 6 6 7 7 6 5 5 7 7 7 7 6 7 10 11 12 13 13 14 15 16 17 16 15 16 15 15 15 15 16 17 17 16 16 16 16 17 18 19 18 17 18 20 21 20 20 20 21 22 25 27 28 29 31 31 32 33 32 32 32 35 41 42 38 38 40 40 39 38 36 35 35 32 30 30 32 31 30 32 34 34
13 10 7 6 6 7 7 7 7 6 6 7 8 8 8 7 8 11 11 11 11 12 14 16 17 18 17 17 17 16 16 15 15 16 17 17 17 17 16 17 18 19 18 18 18 19 21 21 19 18 19 20 22 24 27 29 29 31 31 31 33 34 34 33 33 38 42 40 38 38 38 38 37 34 35 37 36 33 33 34 33 31 32 34 36
14 10 8 7 6 7 8 9 9 8 7 8 8 9 9 9 10 11 10 10 12 14 15 15 17 19 20 19 18 17 17 16 16 17 17 17 18 17 17 18 19 19 18 19 19 19 20 20 19 17 18 20 22 25 28 29 30 30 30 29 29 31 32 32 32 34 39 40 38 36 35 35 35 35 35 35 34 33 34 35 34 33 32 33 36
15 10 8 8 7 7 8 9 9 9 8 9 9 9 8 8 9 9 9 11 14 15 14 14 16 19 20 20 20 21 20 18 17 18 17 17 18 18 18 19 19 19 19 20 20 20 19 19 18 17 17 19 23 26 28 29 31 31 30 30 28 29 30 31 31 32 35 39 38 37 36 35 35 36 36 34 32 31 32 33 35 36 36 37 37
15 11 9 8 8 8 8 9 9 9 9 9 9 10 10 11 11 10 10 12 12 12 13 13 15 17 19 20 21 22 22 20 18 19 18 18 19 19 19 19 20 20 21 20 19 19 18 17 17 16 17 19 22 26 26 27 30 31 31 32 32 32 32 32 31 30 31 35 37 36 37 37 36 36 36 34 32 31 32 34 35 37 38 38 38
16 12 10 9 10 10 9 10 10 10 10 10 10 11 11 12 11 10 11 12 12 14 15 15 15 17 18 19 21 21 22 22 19 19 19 19 20 19 18 18 19 20 20 19 19 19 18 16 16 17 17 18 21 24 24 25 28 31 32 34 36 36 37 36 33 31 30 32 33 34 35 36 35 34 35 34 33 32 32 34 36 37 38 37 37
15 13 12 11 12 13 11 11 11 11 11 11 11 12 11 11 11 13 15 16 16 17 16 14 15 17 18 19 20 21 22 22 20 18 20 20 20 19 18 18 19 20 20 20 20 20 19 17 17 17 17 18 20 22 24 25 28 30 32 35 37 38 39 40 37 33 32 31 30 30 31 32 31 32 34 34 34 33 32 34 36 36 36 35 37
13 14 14 13 13 14 13 13 12 12 12 12 12 12 12 13 14 15 14 13 14 14 13 14 17 19 19 19 19 20 21 21 19 19 20 21 19 18 17 18 20 21 22 22 21 21 21 19 18 18 18 18 19 21 23 26 28 30 31 33 37 39 40 42 40 36 33 31 29 28 28 29 28 30 32 33 34 34 33 35 36 36 34 33 35
13 14 15 13 14 15 14 14 14 13 13 12 13 13 12 13 14 14 13 12 12 13 14 16 18 19 18 18 18 18 19 19 18 18 19 18 17 17 17 18 20 21 22 23 22 21 21 20 20 20 19 19 20 21 23 25 28 30 32 32 35 38 40 42 42 39 34 31 30 28 27 29 28 28 29 32 34 34 32 34 37 37 35 35 35
11 16 15 12 12 12 13 13 13 12 12 12 12 12 12 13 13 13 14 14 13 14 15 16 17 17 17 17 16 17 20 21 19 18 17 16 16 16 16 18 18 19 21 23 23 22 21 21 21 21 21 21 23 24 25 27 28 31 32 32 34 37 39 42 43 40 35 32 32 29 27 29 28 28 29 30 31 33 33 33 36 37 36 37 37
16 19 15 12 12 12 12 12 12 11 11 11 11 11 12 13 12 13 15 15 14 14 14 15 16 16 16 16 15 17 20 20 19 19 18 16 15 15 16 18 18 19 20 21 22 22 22 23 23 23 24 24 26 27 28 29 30 31 32 32 33 35 38 41 42 39 34 32 32 30 29 30 30 29 30 30 30 33 34 34 36 36 37 39 40
23 21 15 14 14 12 12 13 13 12 11 10 10 11 11 12 12 14 16 15 14 14 14 15 16 16 16 15 17 19 20 19 19 19 19 17 16 15 16 18 19 20 21 21 21 22 23 24 24 25 27 27 28 29 30 30 30 30 31 31 33 35 37 39 39 36 33 32 33 33 32 33 33 30 29 29 30 31 33 36 37 37 38 39 41
26 22 17 16 14 13 14 15 15 14 12 11 11 10 11 12 13 15 16 15 15 15 15 16 16 15 15 17 18 19 20 20 20 19 19 19 18 16 16 18 19 21 21 20 20 21 23 24 25 26 28 29 28 28 29 30 30 30 30 32 34 36 38 39 38 34 32 32 34 37 36 35 36 34 30 28 30 31 33 35 37 38 39 40 40
26 22 18 16 14 14 15 16 17 16 14 13 12 11 11 12 13 15 16 15 15 15 15 17 16 16 17 19 20 20 21 21 21 20 19 19 19 18 17 18 19 20 20 20 20 21 23 24 24 26 28 29 28 27 27 28 30 30 30 32 35 37 40 42 38 34 33 33 35 39 39 38 39 38 34 30 31 34 34 35 35 37 39 39 39
26 23 20 18 17 17 17 17 17 17 16 15 14 13 12 12 14 16 16 16 16 15 17 18 18 18 20 20 20 21 21 21 21 21 20 20 20 20 21 21 21 20 20 20 20 21 24 24 24 24 25 25 24 24 24 26 28 30 31 33 34 36 40 42 38 35 36 37 37 38 40 40 41 42 38 33 32 34 34 35 35 36 38 37 37
27 25 24 22 20 19 19 19 19 19 18 17 15 14 14 14 16 16 16 18 18 17 18 19 19 19 20 19 19 20 20 19 19 20 21 21 20 21 22 23 22 20 20 20 19 20 22 23 22 22 22 21 21 21 23 25 27 29 32 32 33 36 41 43 42 41 41 39 38 38 39 40 40 42 41 36 34 33 32 34 35 37 37 35 33
29 28 28 26 24 22 21 21 20 19 19 17 15 15 15 16 17 18 18 19 19 18 19 19 18 19 19 19 19 19 19 19 20 21 20 19 19 19 20 21 21 21 20 20 18 19 21 21 21 21 21 20 20 21 23 25 27 29 30 30 32 38 43 44 46 47 44 42 41 42 41 38 39 42 40 37 36 34 32 34 37 38 38 35 34
31 30 29 28 25 22 21 21 20 19 18 17 16 15 15 16 17 18 20 20 20 19 19 20 20 20 20 20 19 20 20 21 21 21 18 17 18 19 19 19 20 21 20 19 18 18 19 21 21 22 22 21 21 22 24 25 27 28 28 28 32 40 44 45 47 49 48 46 45 43 37 32 36 40 38 36 37 38 38 37 37 38 38 37 35
29 28 28 26 23 21 20 19 19 19 18 17 16 16 15 16 17 18 20 21 21 21 22 22 22 20 20 20 20 21 21 19 19 19 18 18 19 19 17 18 19 20 20 19 18 18 20 20 21 22 22 21 21 23 24 25 26 26 25 27 32 39 43 44 47 50 51 50 48 43 35 28 29 32 31 33 37 40 43 42 37 36 37 36 34
24 23 23 23 21 20 19 19 19 19 19 18 17 17 16 17 17 18 19 21 23 24 23 23 22 22 22 22 21 22 20 17 18 19 19 19 19 18 17 17 18 19 19 18 19 20 20 20 21 22 21 20 22 24 24 24 24 24 24 24 29 38 42 43 46 49 50 50 49 45 38 29 22 22 22 26 34 40 43 44 42 39 37 35 32
21 20 20 20 19 19 20 20 20 20 20 20 19 18 18 19 18 18 19 23 25 25 24 25 26 25 25 23 22 19 16 14 17 19 19 19 18 16 15 15 16 17 18 19 20 21 20 19 21 22 21 21 22 24 23 22 22 23 22 21 26 35 40 41 45 49 49 49 50 48 41 30 17 14 15 18 25 35 41 44 44 43 41 39 35
17 19 19 19 19 20 20 21 21 22 23 22 20 20 20 20 19 19 20 24 26 25 24 24 26 26 24 21 20 17 14 14 17 19 19 19 17 15 14 14 15 17 19 20 20 20 19 19 20 21 21 21 22 22 22 22 22 22 20 19 23 31 36 37 43 50 51 49 50 51 45 34 20 10 10 13 16 24 36 44 44 44 44 43 40
15 16 18 20 21 21 21 21 23 25 25 23 21 21 21 20 19 20 22 25 26 26 25 25 26 27 25 22 20 18 16 16 17 18 19 18 15 14 14 15 16 18 19 20 20 19 17 17 19 21 21 19 20 21 20 21 22 21 19 19 21 27 32 34 40 48 50 48 48 51 49 41 30 18 8 8 11 16 27 37 42 43 44 43 41
17 17 18 20 22 22 21 20 21 22 22 22 21 21 21 21 23 24 24 27 27 26 26 24 24 24 24 22 18 15 14 16 17 17 18 17 14 14 16 18 18 18 19 19 18 17 15 16 19 20 19 17 17 19 19 20 22 21 20 20 20 24 30 32 36 44 48 48 47 49 51 47 37 28 17 5 12 15 21 28 33 37 39 39 39
19 18 19 20 21 21 21 21 22 22 23 23 21 20 21 24 24 22 23 25 26 24 24 21 19 20 21 18 14 12 13 16 16 16 17 17 16 16 18 18 17 17 17 16 15 13 14 16 18 18 16 15 16 17 18 19 21 21 20 20 20 23 28 28 31 41 45 47 47 48 50 48 43 35 23 8 11 16 20 24 26 29 31 33 36
19 20 21 22 23 24 26 27 26 23 22 22 19 18 20 22 20 18 20 21 20 19 20 19 19 19 18 14 11 12 11 12 12 14 16 17 18 18 17 16 15 14 14 13 13 13 14 16 16 15 14 13 15 17 18 17 18 20 19 18 19 23 26 24 27 36 41 44 47 47 46 45 46 43 32 14 6 13 21 24 25 26 28 29 31
15 16 19 22 25 27 25 24 22 19 18 18 15 15 17 17 16 15 15 16 17 18 18 17 17 17 16 13 13 13 11 10 11 13 15 18 19 17 15 14 13 13 13 12 13 14 14 14 14 12 11 13 14 16 17 16 16 18 18 17 19 22 22 20 22 29 34 38 42 45 44 42 46 50 46 33 18 4 15 23 24 25 27 29 30
13 13 15 16 18 19 17 14 15 16 15 14 13 14 15 15 13 12 13 16 20 20 19 17 16 15 15 16 17 15 12 11 13 16 18 19 18 15 12 12 12 12 12 12 11 12 12 12 11 10 10 14 16 15 14 14 15 17 16 16 18 20 19 18 19 23 27 32 37 41 43 43 44 47 49 48 41 27 9 10 22 25 25 27 30
12 10 10 11 12 13 13 11 12 13 12 13 14 14 13 12 12 14 18 21 21 21 21 20 19 16 16 17 17 14 12 13 15 17 18 18 16 13 11 11 11 11 11 10 9 9 9 9 9 9 12 16 16 14 13 13 15 16 15 16 18 20 19 20 21 22 23 26 32 37 41 42 42 44 46 48 47 43 36 20 1 11 15 20 25
9 8 8 9 10 12 13 12 12 11 11 13 15 15 14 15 17 19 21 20 19 20 21 22 20 16 15 16 15 13 12 14 14 15 16 15 13 12 12 11 11 10 8 7 7 8 9 8 8 11 14 15 14 13 13 14 15 15 15 16 18 20 20 20 21 21 21 22 27 32 36 39 40 41 43 46 45 44 46 42 31 20 13 7 9
8 8 7 9 12 13 13 14 14 13 11 12 13 14 14 15 16 17 18 17 18 19 20 19 17 14 13 14 14 12 13 13 13 13 13 12 11 11 11 11 11 9 6 6 8 8 8 8 10 12 12 12 12 12 13 14 15 15 15 16 18 20 21 20 19 21 21 20 22 26 31 34 37 38 39 40 42 43 44 45 43 38 34 27 20
8 8 9 11 15 16 14 14 13 11 10 10 10 11 13 14 14 14 15 16 17 17 16 14 12 10 11 12 12 12 12 11 11 11 11 10 11 11 10 10 11 7 2 4 5 5 5 7 10 10 10 10 11 12 12 13 15 15 16 17 19 21 22 21 20 21 22 21 20 22 25 28 32 35 35 35 36 38 40 42 43 41 40 37 34
7 8 9 10 12 12 12 13 12 10 10 11 10 10 12 14 13 14 16 17 17 15 12 10 8 8 9 9 9 9 9 8 9 9 9 10 10 9 7 9 11 8 2 1 3 5 5 7 9 9 9 10 10 11 12 13 13 14 16 18 20 21 22 22 22 23 23 23 22 21 22 23 26 29 32 33 33 34 36 38 40 40 41 40 38
8 8 10 11 11 10 10 11 11 11 11 10 9 9 11 13 14 15 16 17 16 12 8 6 6 7 7 6 5 6 6 7 9 10 10 10 8 5 5 7 9 9 8 6 6 5 5 6 7 8 9 10 11 12 12 13 13 14 16 17 18 20 20 22 23 23 23 23 23 22 22 23 23 24 27 29 30 31 33 34 35 37 38 38 38
7 8 11 13 12 11 9 9 11 12 12 11 10 10 11 12 13 13 12 12 12 10 7 5 6 6 6 6 8 9 10 12 12 13 13 12 6 1 3 4 3 8 10 7 4 3 4 6 6 7 8 9 10 10 10 11 12 13 14 15 16 17 18 20 21 22 23 22 22 23 23 24 24 23 23 24 25 26 28 29 30 32 32 33 34
5 7 12 13 12 11 10 10 12 13 12 12 11 10 9 9 10 10 10 9 8 8 6 5 5 6 7 8 10 12 13 15 16 16 17 14 7 2 3 2 5 8 7 5 3 3 4 4 5 6 6 6 6 7 8 10 11 12 13 14 14 14 16 17 19 20 21 21 21 21 21 23 23 23 22 22 21 22 23 24 24 25 26 27 29
6 10 13 13 12 11 11 11 11 12 12 12 11 9 8 7 6 6 7 7 7 6 4 3 5 7 8 8 10 12 13 13 13 14 15 15 11 5 4 4 5 5 3 2 2 3 4 4 4 5 5 5 7 8 9 10 11 12 13 14 14 15 15 16 17 19 20 20 20 20 20 21 22 22 22 22 21 20 20 21 21 21 21 21 24
9 11 13 12 11 10 11 11 11 12 12 12 10 8 6 5 4 3 3 4 5 6 5 6 7 7 9 10 10 11 11 9 7 6 8 12 12 9 6 4 3 2 1 2 4 5 5 5 6 6 6 7 7 8 10 10 11 12 12 13 14 15 15 16 17 18 19 19 19 19 19 20 21 21 21 21 21 20 19 18 18 18 18 18 18
10 12 11 9 9 9 9 10 10 9 9 8 7 5 4 4 4 3 3 3 6 9 9 9 10 11 12 12 11 9 8 7 6 4 5 9 10 7 5 3 2 1 2 4 6 6 6 6 6 6 6 7 8 8 9 10 10 11 13 13 14 15 15 16 16 17 17 18 18 18 17 18 19 20 20 20 21 20 18 17 16 16 16 16 15
11 12 11 9 8 8 8 9 9 9 8 7 6 4 4 5 4 3 3 3 4 5 6 8 12 15 14 11 9 7 6 6 7 7 7 8 7 3 1 1 1 2 3 4 4 4 4 5 6 5 6 6 7 8 9 10 11 12 13 14 15 15 15 15 15 15 15 15 16 16 16 16 17 17 17 18 19 20 19 17 16 14 13 13 13
10 12 12 10 8 7 7 7 7 8 8 7 6 5 7 9 6 3 3 3 3 2 3 8 13 15 13 9 6 7 5 4 4 4 4 4 3 1 2 2 2 3 3 1 2 3 3 4 5 6 6 7 8 9 10 11 12 13 13 13 14 14 13 13 13 13 12 12 13 14 16 16 16 16 16 16 16 17 17 17 17 16 14 13 12
10 11 10 8 5 5 4 5 6 7 6 6 5 5 9 11 6 2 1 2 3 5 7 10 14 17 18 13 7 5 4 2 1 1 2 3 2 2 3 3 3 3 3 3 4 4 3 4 5 7 8 9 10 11 12 13 13 13 13 13 13 12 12 12 12 12 11 10 11 13 15 16 16 15 15 14 14 15 16 16 16 16 16 15 14
7 8 8 7 6 5 5 6 6 4 4 5 6 5 6 8 7 4 3 4 5 7 9 11 13 16 18 14 6 2 2 2 1 2 2 2 2 2 3 3 3 3 4 4 5 4 4 4 5 7 8 9 10 10 10 11 11 11 11 11 12 12 11 11 12 12 11 10 10 12 15 17 18 16 15 14 14 15 15 14 14 15 16 16 16
5 6 6 5 5 5 5 5 6 5 4 5 5 3 3 6 7 5 5 6 6 6 6 7 9 11 13 10 5 3 2 3 2 3 2 1 2 2 2 2 5 7 8 7 6 5 5 5 5 6 6 6 7 8 8 8 8 9 10 10 11 11 11 12 12 12 12 11 11 12 15 17 18 17 16 15 15 15 15 15 15 15 15 15 15
5 6 5 5 5 5 4 4 5 6 4 4 3 3 4 5 5 5 6 7 6 5 5 5 5 7 8 6 3 3 4 5 4 3 3 3 3 1 0 3 7 9 8 6 7 8 7 4 4 4 4 4 4 5 7 7 8 8 9 10 11 11 12 13 12 12 13 12 11 12 15 17 17 16 17 17 17 16 16 15 16 17 16 15 15
6 5 5 5 4 3 3 3 4 5 4 4 5 7 6 4 5 7 9 8 6 6 8 9 7 6 6 5 3 4 6 6 5 3 2 4 5 4 0 1 4 5 4 5 7 8 6 3 1 2 2 2 3 4 6 7 8 8 9 10 10 11 12 12 11 12 12 12 12 12 14 16 16 15 16 16 17 17 16 16 19 20 19 17 15
4 2 3 4 2 1 3 4 5 7 6 5 6 8 8 7 7 8 9 8 8 10 11 9 6 6 7 6 4 5 6 6 6 6 4 3 3 5 4 4 3 4 8 9 7 5 4 2 3 3 2 2 2 2 4 6 7 7 8 8 9 9 10 10 10 10 11 12 11 11 12 14 15 15 15 14 15 17 17 17 20 21 20 19 18
5 4 4 5 5 4 5 6 6 7 7 7 7 8 8 8 7 7 7 7 8 9 10 9 7 8 8 7 6 7 6 4 5 5 3 2 2 5 7 8 8 4 5 7 5 3 2 1 1 2 3 4 4 3 3 5 5 6 6 6 7 7 8 9 9 9 10 10 10 9 10 11 12 13 14 13 13 15 16 17 19 20 19 19 20
6 6 6 7 7 7 8 8 8 8 8 8 9 9 9 9 10 9 9 9 8 6 6 8 9 9 9 7 6 7 6 5 5 5 4 4 5 7 8 7 6 5 2 4 4 2 2 3 3 3 3 4 6 6 5 5 5 5 5 5 6 6 6 7 8 8 8 9 9 9 8 9 10 11 12 12 11 12 14 16 18 18 17 18 19
7 7 7 8 8 9 10 9 9 9 9 10 10 10 10 11 11 10 10 10 9 8 8 8 9 9 8 7 7 7 6 5 5 6 5 5 7 7 8 5 4 5 4 4 3 2 1 2 4 5 5 4 7 10 9 7 7 7 6 6 6 6 5 5 6 6 6 7 7 7 8 8 9 9 10 10 10 10 12 14 16 16 16 17 18
9 10 10 10 10 11 11 11 11 12 12 11 11 11 12 13 13 12 11 10 10 9 10 10 9 8 8 8 8 8 7 6 6 5 5 6 6 6 6 4 3 3 3 2 1 2 2 2 3 4 4 4 9 13 11 9 8 9 9 8 7 6 5 5 4 4 5 6 6 6 6 7 8 9 9 10 10 9 9 11 14 15 14 15 16
Wind_Direction
214 228 238 241 251 259 263 267 272 282 287 290 289 277 275 296 312 312 312 307 303 305 308 308 308 311 311 303 299 301 303 305 307 307 308 309 309 308 308 307 309 317 321 320 321 324 325 326 328 331 335 338 341 342 339 337 331 323 314 306 303 303 302 301 300 296 295 292 286 282 280 280 278 272 267 265 263 259 252 249 251 249 248 252 256
210 217 232 244 256 266 265 261 268 282 283 277 272 270 291 322 313 302 305 305 302 301 300 299 300 307 312 309 302 297 295 299 303 303 303 307 308 307 307 307 310 316 319 315 317 322 325 326 328 330 336 341 346 347 343 339 336 333 327 317 310 307 302 300 301 298 296 296 291 285 283 280 275 271 268 265 263 261 256 254 256 254 250 252 255
209 216 225 236 253 264 255 243 247 260 263 266 265 262 279 303 299 291 292 292 292 294 295 298 301 306 313 315 311 305 299 296 298 299 301 305 308 306 305 307 310 315 316 312 312 318 322 323 323 327 336 343 347 349 345 341 338 337 336 333 325 318 311 303 300 298 295 295 293 287 285 279 272 272 274 269 264 261 258 257 258 256 251 250 253
210 220 230 243 260 263 251 240 242 247 251 262 269 263 269 292 296 284 277 285 296 301 304 307 309 309 310 310 309 309 306 299 293 293 298 303 306 304 302 304 308 314 315 311 310 313 316 318 318 323 335 343 348 350 349 345 342 340 342 345 341 334 326 315 306 301 295 293 291 286 282 280 274 271 272 269 264 260 258 258 257 255 253 252 252
206 223 238 252 259 257 249 242 240 245 250 252 256 259 263 268 271 275 283 293 300 298 294 298 304 304 301 301 300 302 304 301 293 291 293 298 301 301 299 301 306 313 314 310 307 308 311 313 313 318 330 342 348 351 351 349 346 345 346 349 348 344 341 332 319 308 300 294 291 284 279 280 277 269 265 264 262 259 258 258 259 258 256 254 251
190 211 228 232 234 238 242 240 234 237 248 253 253 255 261 264 268 277 280 278 276 277 280 288 296 297 296 297 297 296 298 298 297 294 293 297 300 298 297 300 305 311 311 304 301 302 306 306 304 311 326 339 346 348 349 349 349 348 347 346 346 345 344 341 332 319 308 299 291 284 278 280 278 267 262 263 261 258 258 258 259 259 259 256 251
187 198 207 209 220 229 232 235 237 233 239 250 254 254 259 262 261 264 265 267 273 280 286 292 292 290 290 291 290 291 293 296 301 301 296 300 303 299 299 300 303 307 305 299 297 298 301 298 292 302 321 334 340 344 346 346 347 348 347 345 344 343 342 342 338 327 316 307 297 286 279 279 277 266 262 265 263 258 257 255 255 256 255 254 249
192 196 201 204 216 227 227 228 235 237 242 250 254 253 255 257 263 271 278 282 284 286 289 288 286 289 293 291 290 296 296 296 303 305 299 299 301 299 303 304 302 305 303 299 298 296 298 297 288 293 310 324 332 339 343 345 344 344 345 344 343 342 342 341 339 332 323 313 305 295 283 280 279 271 266 264 260 257 254 251 252 254 252 250 247
192 203 213 214 220 228 226 224 227 236 248 256 258 260 262 265 274 284 290 294 295 292 289 287 291 299 303 299 299 302 296 293 300 303 298 298 299 301 308 308 304 303 301 300 300 297 297 297 289 287 298 311 318 325 332 338 338 337 340 342 341 341 341 340 338 335 327 316 310 305 293 284 281 276 269 263 258 257 254 249 248 251 252 252 250
210 215 220 224 230 231 227 227 231 238 249 256 259 261 262 266 275 281 286 293 294 291 291 294 298 299 297 295 297 295 291 295 302 301 295 296 298 301 308 309 306 306 305 303 302 300 297 295 291 288 294 305 312 313 317 323 325 327 331 336 338 339 339 339 337 334 328 319 312 309 301 291 284 277 272 268 264 260 255 250 247 247 249 251 249
218 217 221 227 231 229 229 233 237 244 252 258 262 261 260 265 274 277 282 291 294 293 295 296 294 293 294 295 293 289 291 298 303 300 296 293 293 296 305 310 312 315 315 310 304 300 298 296 294 291 294 303 312 312 312 317 319 321 326 331 334 336 337 336 335 332 327 320 315 310 303 297 291 283 274 269 267 263 257 250 247 245 243 245 246
217 221 222 224 226 228 234 237 237 243 252 259 263 263 263 267 272 274 279 286 291 291 291 287 287 292 295 292 288 290 296 302 302 299 295 289 286 292 302 309 314 318 320 317 309 303 300 297 296 295 296 301 310 313 314 317 319 319 323 329 332 333 334 335 334 330 323 317 312 309 303 298 295 290 278 267 265 266 260 252 248 246 241 241 243
214 222 218 219 224 227 232 233 234 241 247 254 259 259 262 266 267 268 274 278 281 283 282 281 284 286 287 288 290 293 297 301 301 297 292 288 286 287 294 303 309 313 317 318 315 312 308 302 300 301 300 299 304 312 315 316 318 318 322 329 332 331 332 335 335 331 323 313 307 304 302 296 292 291 286 273 263 262 261 256 251 246 242 241 241
214 222 218 219 224 226 230 231 234 240 244 248 253 255 259 265 265 266 271 273 276 278 277 278 282 281 283 291 295 295 295 297 300 298 293 290 288 285 287 293 298 304 309 311 315 319 318 310 303 303 305 303 305 311 315 314 315 317 322 328 331 331 334 337 336 330 323 314 304 300 298 294 289 288 288 280 266 257 254 255 252 246 243 244 242
217 222 221 222 223 225 228 229 234 240 241 243 249 254 258 264 265 269 272 271 271 271 269 276 283 284 287 292 293 295 297 297 300 302 298 294 291 286 285 287 290 295 303 308 315 322 321 313 303 304 311 314 312 313 316 315 314 318 322 325 328 332 336 338 335 328 323 317 307 300 295 290 285 283 282 278 267 255 249 249 251 249 248 246 241
217 221 225 225 224 224 224 227 232 235 236 240 247 252 255 261 266 272 273 271 273 273 271 276 284 286 289 289 286 289 294 294 297 302 303 302 299 291 287 286 285 291 300 308 315 322 322 317 312 313 318 319 318 318 318 316 316 319 321 323 328 334 337 338 336 331 327 323 317 311 304 295 286 278 274 269 261 252 247 248 247 245 245 243 237
216 221 225 223 224 225 222 223 227 230 234 239 244 247 251 258 266 273 272 271 273 273 272 276 281 282 282 280 279 282 287 290 297 302 305 307 304 299 294 288 285 289 298 306 313 318 319 320 322 325 324 323 323 322 319 317 318 320 321 324 332 337 339 341 340 336 333 331 327 324 316 302 285 275 268 260 250 241 238 243 244 240 240 242 240
218 222 222 221 222 222 220 221 224 228 234 239 242 246 252 258 264 270 272 271 268 268 269 271 274 276 276 275 275 275 278 287 295 299 304 307 304 301 297 290 287 290 296 305 312 315 318 323 327 329 327 324 322 319 318 320 320 321 322 329 338 342 342 342 341 339 339 340 337 332 324 303 281 273 265 252 241 231 225 231 238 237 237 240 239
223 223 222 222 222 220 221 223 224 227 233 238 242 245 250 257 261 266 272 270 266 267 270 271 272 273 272 272 274 273 277 284 288 290 300 306 304 303 299 291 290 292 296 303 311 316 322 325 326 325 323 320 317 317 320 322 321 321 323 331 342 345 342 340 341 342 344 346 345 342 336 315 289 277 264 245 233 227 221 221 227 233 234 235 234
225 225 225 226 226 224 224 224 226 232 235 236 240 243 247 254 258 265 270 267 265 268 270 270 272 272 271 273 274 273 275 277 275 284 301 308 307 306 302 296 295 296 299 305 310 316 321 321 319 320 321 320 318 320 323 323 321 323 325 330 343 346 340 338 344 348 348 349 350 349 347 336 310 289 272 246 230 223 219 217 219 225 229 231 233
228 228 229 230 230 230 228 226 230 234 233 232 237 244 249 254 260 266 267 265 267 270 271 270 272 272 272 275 278 278 278 275 273 284 302 310 310 310 304 299 301 303 305 308 310 313 316 316 317 321 324 323 322 323 325 324 322 324 327 332 343 345 339 339 349 354 354 355 355 354 355 352 331 295 281 263 238 223 216 214 216 220 225 231 234
235 235 235 234 235 234 232 231 231 231 232 233 237 244 250 255 263 269 270 270 272 274 273 275 280 281 281 286 297 302 298 287 281 289 302 311 312 311 305 303 306 307 306 308 309 311 314 316 317 322 324 323 324 325 325 324 324 325 327 332 339 342 340 343 353 358 359 360 358 355 358 3 360 330 285 270 254 230 217 214 215 218 224 231 235
240 245 244 241 241 238 235 235 233 231 231 234 240 247 250 253 263 271 271 270 272 274 275 280 287 291 291 295 306 310 305 295 289 292 303 309 309 309 308 306 307 307 306 307 309 310 313 315 316 320 322 323 326 327 325 324 324 326 328 328 331 338 341 345 355 359 0 3 1 357 0 7 9 3 337 259 244 238 226 219 218 221 226 231 234
243 244 247 249 248 243 238 237 238 237 239 244 249 249 250 259 274 279 275 271 271 273 276 282 290 293 293 295 300 306 306 301 295 293 301 306 305 306 308 307 308 308 304 305 309 309 309 311 313 318 322 324 327 327 326 326 325 327 329 324 323 332 337 343 357 2 1 5 4 359 2 11 13 10 2 289 219 219 228 228 226 227 229 232 233
251 247 249 254 252 246 242 244 247 250 254 255 253 253 263 276 284 283 275 272 273 274 279 287 294 297 298 299 304 310 307 300 295 293 299 306 308 308 309 309 309 305 300 303 307 304 304 309 314 319 322 324 328 327 325 327 327 328 330 324 321 328 329 336 1 8 2 5 8 2 5 14 19 20 16 335 236 219 221 227 230 231 232 233 233
265 263 259 255 251 248 248 250 252 255 256 255 257 270 283 286 285 280 274 274 277 282 289 294 296 298 300 302 310 319 311 297 292 292 298 309 315 313 311 312 308 300 295 296 298 298 304 311 317 323 326 326 327 324 322 327 329 331 335 333 332 337 335 341 10 15 7 6 11 9 10 17 23 29 32 20 287 237 225 223 225 227 227 228 229
274 273 266 259 258 260 260 259 258 257 256 261 275 292 293 285 280 277 273 275 283 292 298 301 299 300 302 302 308 316 305 284 285 293 301 310 315 315 317 319 316 309 300 293 293 301 309 314 321 332 334 327 323 321 322 329 336 339 344 348 349 351 350 353 11 19 13 10 12 13 14 19 25 30 35 37 33 331 233 227 228 229 226 223 221
281 282 273 267 265 266 264 260 257 258 263 271 280 284 283 281 277 269 269 282 291 294 297 299 298 298 298 298 303 306 293 280 287 296 302 308 312 318 326 325 323 319 308 300 303 309 313 324 338 344 329 317 319 324 328 334 341 344 349 357 360 1 360 359 7 17 18 16 16 16 16 19 24 29 33 37 40 37 20 238 229 231 230 225 221
281 280 268 263 260 256 253 251 256 264 270 270 272 273 274 276 276 276 283 293 297 295 295 296 296 297 296 294 297 297 286 283 291 298 303 310 315 323 332 330 329 327 317 313 319 324 333 350 353 328 311 314 323 330 333 340 347 349 353 2 6 6 5 6 9 15 19 19 20 20 18 18 22 28 32 36 40 41 41 43 133 217 218 219 222
264 261 258 260 258 253 252 253 257 263 268 269 274 278 277 277 280 284 289 294 295 296 297 298 300 302 297 293 296 296 292 293 298 300 304 310 317 328 335 333 331 328 323 330 342 349 2 7 337 313 316 324 330 335 341 347 351 352 358 9 13 11 9 9 11 14 16 20 23 24 21 18 20 25 31 35 38 41 44 47 50 56 70 122 187
249 250 249 250 255 261 269 271 268 269 274 274 274 275 277 280 283 285 288 291 295 298 301 302 303 303 298 296 298 297 295 298 301 302 305 313 326 339 341 338 337 335 341 9 14 6 6 356 328 322 332 338 340 347 355 358 357 358 2 12 20 18 13 12 16 18 18 20 24 26 24 21 21 23 28 33 36 38 41 46 48 50 52 58 65
259 258 254 257 263 269 275 274 269 268 275 276 270 272 281 284 281 281 287 293 296 301 306 308 307 304 300 297 295 293 293 296 296 301 310 322 337 349 352 350 347 340 347 57 41 17 359 346 336 339 352 355 357 5 9 8 7 7 9 15 23 23 18 17 23 28 26 24 26 28 26 23 23 25 26 28 32 35 37 41 44 46 46 49 53
264 260 260 267 272 271 270 271 268 265 266 266 261 265 277 284 284 286 292 296 299 305 310 309 309 313 312 307 299 293 293 297 303 311 323 335 346 1 8 358 349 340 309 263 318 315 323 339 350 4 15 17 19 21 21 22 23 22 22 24 26 26 23 22 25 28 29 29 28 29 28 23 22 26 27 26 28 31 33 35 38 40 40 41 46
271 263 260 262 266 268 270 271 266 257 252 254 260 267 275 281 285 287 289 292 295 303 311 313 317 325 331 340 347 337 326 324 325 328 334 339 342 0 25 15 354 340 333 329 326 334 352 1 10 20 24 24 24 21 25 33 32 23 18 17 16 17 19 20 20 22 25 27 27 29 30 26 23 25 28 28 28 29 31 31 32 35 36 35 39
270 263 263 266 266 264 258 252 253 253 253 258 270 277 279 285 289 286 280 281 288 296 306 313 314 323 343 8 16 7 355 348 343 339 339 340 335 348 69 60 341 310 322 337 353 20 22 7 2 3 2 6 11 9 15 26 23 11 7 6 5 7 9 11 14 15 17 20 23 26 29 30 28 28 29 29 27 25 26 28 29 31 34 34 34
257 248 255 261 264 260 254 252 257 264 269 274 275 270 268 276 280 271 262 261 268 279 291 301 301 314 339 2 5 358 351 346 344 341 340 342 337 249 214 234 276 296 320 347 4 16 18 5 357 359 359 7 18 18 19 23 19 15 15 14 12 12 10 10 12 13 13 14 16 21 26 29 30 30 30 32 31 25 21 23 25 28 33 36 34
239 248 256 262 263 258 253 257 265 271 276 280 276 264 256 257 254 251 254 249 232 229 250 271 279 298 322 341 346 343 340 339 343 348 345 343 341 323 283 281 295 310 341 38 40 48 63 58 40 33 29 33 41 39 32 27 26 28 26 22 19 19 17 16 15 14 15 15 15 18 25 29 31 32 31 32 35 32 24 21 20 22 28 36 38
243 259 267 267 262 251 246 255 269 276 280 281 273 260 252 248 232 228 252 248 216 204 215 229 243 272 302 315 319 323 324 322 332 353 343 329 330 340 349 343 331 333 37 118 112 101 94 80 65 54 39 31 34 36 30 25 23 22 20 18 16 15 13 13 13 12 14 15 15 18 25 30 33 34 34 33 34 34 30 24 20 19 22 28 38
256 270 273 265 258 251 246 251 260 268 275 276 264 246 233 228 225 218 215 217 212 215 228 242 251 263 280 292 298 302 301 290 275 265 289 303 314 337 3 10 6 15 146 140 128 110 88 67 57 49 36 28 25 23 20 16 10 7 5 2 2 1 1 2 3 3 4 7 9 11 19 27 31 34 36 37 35 33 33 30 23 19 21 26 34
252 266 268 262 257 253 249 246 244 246 247 242 235 224 200 195 203 207 209 227 234 229 245 269 272 271 278 288 287 276 266 264 263 261 272 290 304 323 24 56 86 133 143 128 104 83 60 44 37 30 23 16 9 4 1 359 355 354 353 351 350 351 351 352 354 355 354 356 360 3 9 19 25 26 31 37 37 34 33 33 29 22 21 25 29
240 253 264 269 265 252 249 248 239 232 228 223 218 207 198 202 211 213 203 233 276 274 270 282 285 291 306 311 279 249 244 260 280 284 278 280 288 265 191 176 166 174 188 215 331 344 357 7 5 360 356 355 353 350 350 350 349 348 348 348 348 350 350 350 352 353 350 351 358 5 9 15 19 18 20 29 35 33 32 32 30 25 22 22 24
233 241 259 273 263 232 233 247 241 232 225 217 212 212 212 215 225 259 262 252 256 252 269 294 305 314 323 322 293 253 256 283 309 304 275 262 257 241 224 211 209 227 251 273 289 309 331 337 336 338 340 342 344 342 340 343 346 347 351 355 355 356 1 4 2 360 359 1 10 17 19 20 21 18 15 20 27 28 28 29 29 27 25 23 23
225 231 247 262 255 233 235 247 243 228 212 208 212 224 222 210 204 215 245 249 245 252 277 300 309 313 318 324 333 349 326 310 286 269 274 290 290 244 223 208 221 252 280 294 294 303 320 324 326 332 333 333 337 337 335 341 349 351 356 4 7 8 13 18 15 13 14 16 22 29 29 25 22 20 18 21 24 23 22 25 28 28 28 27 26
226 232 240 248 244 231 234 238 222 199 196 212 217 220 221 209 203 210 235 245 246 253 276 304 320 323 323 329 352 16 331 302 283 261 252 289 323 286 259 304 315 315 317 311 301 312 331 328 321 329 338 341 342 340 340 354 6 5 5 13 18 18 21 26 25 23 22 23 29 39 37 29 24 24 25 26 27 25 22 24 26 27 28 29 30
225 229 228 225 229 228 221 214 202 193 203 234 229 206 206 217 219 232 254 263 256 240 245 269 300 315 312 309 309 300 294 293 290 260 218 212 234 246 322 318 315 322 330 324 313 317 323 316 310 330 350 0 354 346 352 8 20 19 15 19 22 22 24 28 28 27 27 25 29 43 43 32 24 26 29 31 32 31 30 31 32 30 28 29 32
202 207 208 209 218 214 182 176 191 204 223 249 234 219 220 235 242 245 252 257 251 245 256 266 268 271 284 301 307 284 286 298 302 288 250 240 247 244 202 338 303 292 284 288 304 313 315 317 1 15 17 25 8 348 352 8 22 25 20 20 21 21 22 24 25 28 29 23 21 34 43 35 26 27 31 33 34 36 38 41 40 34 29 30 35
208 216 219 208 200 179 180 186 200 215 227 239 239 236 240 249 251 250 251 253 258 262 262 263 267 274 283 296 288 261 267 283 283 282 310 325 264 227 201 194 217 258 277 281 285 289 291 324 24 33 31 28 15 353 356 6 15 22 20 16 17 18 17 16 17 22 27 22 15 26 38 35 26 25 28 30 34 36 38 43 42 34 28 30 36
214 216 223 220 219 223 221 218 222 230 239 248 250 248 248 251 260 270 271 275 286 279 257 245 258 268 264 261 259 251 250 253 249 255 300 341 227 209 216 215 206 215 284 296 291 277 277 327 20 35 24 6 349 349 13 12 4 6 11 9 8 11 13 10 6 9 18 17 9 15 34 36 27 22 21 24 31 34 36 40 40 31 25 29 35
213 225 233 231 229 230 232 235 237 240 247 252 251 250 252 256 265 273 272 271 281 279 248 240 254 258 249 245 249 246 241 234 226 227 237 236 225 240 260 252 204 174 221 285 298 321 1 10 357 355 16 4 332 328 352 9 359 354 358 356 355 1 8 6 358 357 9 12 2 3 22 34 31 26 22 20 25 31 35 38 36 29 24 28 33
235 237 233 229 233 236 236 238 243 247 250 251 249 249 253 255 255 258 260 259 259 257 249 245 247 246 243 241 238 234 233 232 224 219 221 219 224 248 270 264 178 167 208 257 283 304 352 10 348 347 6 358 312 309 326 346 344 339 339 340 344 351 359 2 355 351 1 6 358 357 12 22 23 23 23 22 24 31 37 37 32 26 24 27 31
248 240 232 229 233 232 229 234 243 246 244 243 247 252 256 254 249 248 252 253 252 252 251 247 242 240 238 236 232 228 222 217 213 214 221 222 223 240 259 257 203 187 217 258 307 306 316 332 323 336 9 343 296 297 312 329 329 326 327 326 327 335 345 350 352 355 1 1 355 358 9 12 7 8 13 18 22 30 41 43 34 25 23 28 31